Torna al catalogo

CZ-4 DEB

AttivoSSO
NORAD 32473·DEBRIS·🇨🇳 China

Lanciato Sep 19, 2007 da Taiyuan Satellite Launch Center

Loading…

Prossimi Passaggi (prossime 24 ore)

TLE

AggiornatoSource: Space-Track

Epoca: Sep 13, 2026, 23:20 UTC

1 32473U 07042C   26256.97247008  .00002385  00000-0  44564-3 0  9994
2 32473  97.9584 262.1025 0085343 313.2533  46.1568 14.63512364991705

Traccia CZ-4 DEB in tempo reale con AllMySat

Download on the App Store